Regional Weather Roundup
Issued by NWS Grand Forks, ND

Home | Current Version | Previous Version | Text Only | Print | Product List | Glossary Off
Versions: 1 2 3 4 5 6 7 8 9 10 11 12 13 14 15 16 17 18 19 20 21 22 23 24 25 26 27 28 29 30 31 32 33 34 35 36 37 38 39 40 41 42 43 44 45 46 47 48 49 50

000
ASUS43 KFGF 032210
RWRFGF
PRAIRIE TO PINES  WEATHER ROUNDUP
NATIONAL WEATHER SERVICE EASTERN NORTH DAKOTA/GRAND FORKS ND
400 PM CST TUE MAR 03 2015

 **SATELLITE DATA USED TO AUGMENT SKY COVER AT AUTOMATED STATIONS**
 *****  WEATHER ACROSS EASTERN NORTH DAKOTA  *****

CITY           SKY/WX    TMP DP  RH WIND       PRES   REMARKS
GRAND FORKS    CLOUDY     9  -2  61 NW21G28   29.91R WCI -11
GRAND FRKS AFB PTSUNNY    9  -6  52 NW23G32   29.90S WCI -12
GRAND FRKS NWS   N/A      9 N/A N/A NW22        N/A  WCI -11
DEVILS LAKE    PTSUNNY    3  -8  60 NW30G37   29.90R WCI -21
FARGO          FLURRIES  12  -2  53 NW26G32   29.93R WCI  -8
WAHPETON ARPT  CLOUDY    12   3  67 NW23G30   29.94R WCI  -7
$$

 ***** WEATHER ACROSS CENTRAL AND WESTERN NORTH DAKOTA  *****

CITY           SKY/WX    TMP DP  RH WIND       PRES   REMARKS
BISMARCK       CLOUDY    11  -2  56 NW17G28   30.01S WCI  -6
MINOT          LGT SNOW   4  -6  63 W26G35    29.97S WCI -19
JAMESTOWN      CLOUDY     9  -2  61 NW28G36   29.93R WCI -13
MINOT AFB      PTSUNNY    4  -3  74 NW29G37   29.96R BLWGSNOWWCI -21
GARRISON         N/A      7  -2  66 NW24      29.97S WCI -14
WILLISTON      PTSUNNY    9  -4  55 NW24G31   30.02F WCI -12
DICKINSON      PTSUNNY   15  -4  42 NW25G33   29.93S WCI  -4
HETTINGER      CLOUDY    15  -5  40 W26G32    29.96S WCI  -4
$$

 *****  OTHER AIRPORT OBSERVATIONS IN OUR AREA  *****

CITY           SKY/WX    TMP DP  RH WIND       PRES   REMARKS
WALHALLA         N/A      3  -4  72 NW22G31   29.89R WCI -19
GRAFTON AIRPOR NOT AVBL
VALLEY CITY AR FLURRIES   9   0  66 NW30G38   29.92R WCI -14
CANDO          MOCLDY     1  -4  78 W29G36    29.90R WCI -24
CAVALIER APRT  CLOUDY     5  -2  72 W24G30    29.89R WCI -17
GWINNER        MOCLDY    14   1  57 NW22G31   29.96R WCI  -4
SHEYENNE NWR     N/A     11  -4  51 NW21      29.95  WCI  -8
ROLLA          FAIR       1  -9  60 NW26G32   29.85S WCI -23
 ***** THE ABOVE OBSERVATIONS ARE NON NWS ARE NOT QUALITY
       CONTROLLED AND MAY MIS-REPORT RAIN FOR SNOW...
$$

  *****  WEATHER ACROSS NORTHERN MINNESOTA  *****

CITY           SKY/WX    TMP DP  RH WIND       PRES   REMARKS
FLAG ISLAND    SUNNY      5  -8  56 NW20G31   29.73R WCI -15
WARROAD        SUNNY      7  -8  51 W17G23    29.77R WCI -12
ROSEAU         SUNNY      7  -2  66 W16G23    29.79S WCI -11
HALLOCK        NOT AVBL
THF RVR FALLS  CLOUDY     7   3  85 W23G30    29.84R VSB 1/2 WCI -14
BAUDETTE       PTSUNNY    8  -6  52 NW21      29.72R WCI -12
WASKISH        MOSUNNY   10   1  67 W16G23    29.75R WCI  -7
CROOKSTON      SUNNY      9   0  66 NW25G36   29.89F WCI -13
$$
  *****  WEATHER ACROSS CENTRAL AND WEST MINNESOTA  *****

CITY           SKY/WX    TMP DP  RH WIND       PRES   REMARKS
FOSSTON        MOSUNNY    9  -2  61 W22       29.84R WCI -11
BEMIDJI        PTSUNNY   10  -1  59 W18G30    29.76R WCI  -8
PARK RAPIDS    PTSUNNY   11   1  64 NW22      29.77R WCI  -8
ELBOW LAKE     CLOUDY    11   4  72 NW29      29.88S HAZE    WCI -10
WADENA         MOSUNNY   10   1  67 NW17G23   29.81R WCI  -7
DETROIT LAKES  PTSUNNY   10   3  72 NW26      29.85R HAZE    WCI -11
MOORHEAD       MOSUNNY   14   3  62 NW22G30   29.92R WCI  -4
FERGUS FALLS   MOSUNNY   10   0  61 NW29      29.92S WCI -11
MORRIS MN      MOSUNNY   12   5  73 NW25G31   29.90R HAZE    WCI  -8
STAPLES        PTSUNNY   12   3  67 NW21      29.79S WCI  -6
$$
  *****  WEATHER ELSEWHERE ACROSS MINNESOTA  *****

CITY           SKY/WX    TMP DP  RH WIND       PRES   REMARKS
DULUTH         MOSUNNY   21   6  52 NW18G28   29.59R WCI   6
INTRNTL FALLS  PTSUNNY   11  -4  51 W18G26    29.67R WCI  -7
ELY            MOSUNNY   16   3  57 NW18G26   29.57R WCI  -1
CLOQUET        FAIR      19   3  49 W21G29    29.64R HAZE    WCI   3
WHEATON        MOSUNNY    9   1  72 NW25      29.95S WCI -13
BRAINERD       SUNNY     17   4  56 W17G30    29.75R WCI   1
HIBBING        SUNNY     17   1  49 NW17G33   29.64R WCI   1
ALEXANDRIA     CLOUDY    13   3  64 NW24G35   29.83R HAZE    WCI  -7
SAINT CLOUD    SUNNY     19   8  62 NW24G31   29.77R WCI   2
MINNEAPOLIS    MOSUNNY   26  11  52 NW22      29.74R WCI  12
$$

  *****  WEATHER ACROSS SOUTH DAKOTA  *****

CITY           SKY/WX    TMP DP  RH WIND       PRES   REMARKS
SIOUX FALLS    PTSUNNY   15   6  67 NW25G33   29.96R BLWGSNOWWCI  -4
BROOKINGS      NOT AVBL
WATERTOWN      PTSUNNY   10   2  69 NW24G32   29.92R WCI -10
HURON          PTSUNNY   16   3  56 NW25      30.00S WCI  -3
SISSETON         N/A     12   2  64 N30G36    29.93  WCI -10
ABERDEEN       MOSUNNY   15   1  53 NW26G36   30.00R WCI  -4
MITCHELL       PTSUNNY   19   8  62 NW20G32   30.03R WCI   3
PIERRE         MOSUNNY   20   4  50 NW17G25   30.00F WCI   5
MOBRIDGE       MOSUNNY   20  -1  40 NW24G32   29.96F WCI   3
RAPID CITY     CLOUDY    16   2  54 N25       29.94F WCI  -3
$$

  *****  SOME WEATHER IN NEARBY STATES *****

CITY           SKY/WX    TMP DP  RH WIND       PRES   REMARKS
GLASGOW MT     SUNNY     18  -7  32 NW22G29   30.01F WCI   1
GREAT FALLS MT SUNNY     16   2  54 SW6       30.03F WCI   7
CHEYENNE WY    LGT SNOW  13   4  67 NE7       29.77S WCI   3
SCOTTSBLUFF NE CLOUDY    22   9  57 W9        29.92S WCI  12
OMAHA NE       PTSUNNY   32  18  56 N21G32    29.91R WCI  20
DES MOINES IA  CLOUDY    33  25  72 N22G32    29.83R WCI  21
DAVENPORT IA   CLOUDY    33  28  81 NW14      29.74R WCI  23
CHICAGO IL     CLOUDY    34  29  82 W15G23    29.66R WCI  24
EAU CLAIRE WI  CLOUDY    29  19  66 NW16G23   29.65R WCI  17
LA CROSSE WI   CLOUDY    32  23  69 NW14      29.68R WCI  22
$$

  *****  SOME NATIONAL WEATHER *****

CITY           SKY/WX    TMP DP  RH WIND       PRES   REMARKS
LA GUARDIA NY  SNOW      28  27  93 S13       30.18F VSB 1/4 WCI  18
RALEIGH NC     LGT RAIN  36  33  89 CALM      30.22F FOG
ATLANTA GA     FOG       53  52  96 E8        30.12F VSB<1/4
NEW ORLEANS LA PTSUNNY   75  65  70 S16       30.00F
OKLAHOMA CITY  CLOUDY    57  43  59 NW13      29.82R
ALBUQUERQUE NM MOSUNNY   52  29  41 CALM      29.77F
SALT LAKE CITY PTSUNNY   36  25  64 N12       29.90R
LOS ANGELES CA MOSUNNY   60  47  61 W17       29.91F
BOISE ID       MOSUNNY   45  17  32 NW21      30.00F
SEATTLE WA     MOSUNNY   50  18  28 W8        30.23F
$$

*** WEATHER ACROSS MANITOBA...SASKATCHEWAN AND ONTARIO ***
                ***ONTARIO***

CITY           SKY/WX    TMP DP  RH WIND       PRES   REMARKS
GERALDTON      LGT SNOW  23  19  86 W13G20    29.30F VSB 1   WCI  11
THUNDER BAY    FLURRIES  25  19  80 NW14G25   29.44R WCI  13
SIOUX LOOKOUT  MOSUNNY    7  -9  47 NW20G30   29.55R WCI -13
TORONTO        FRZ RAIN  25  23  93 SE8       29.64F FOG     WCI  16
BIG TROUT LK   LGT SNOW   5   0  78 NW17G28   29.38R WCI -14
PICKLE LAKE    FLURRIES   9  -4  56 W20G30    29.39R WCI -11
DRYDEN         MOSUNNY    5  -9  51 W24G30    29.59R WCI -17
KENORA         FLURRIES   1  -9  60 NW13G26   29.68R WCI -16
$$
                *** MANITOBA***

CITY           SKY/WX    TMP DP  RH WIND       PRES   REMARKS
BRANDON        PTSUNNY    0  -8  71 NW28G35   29.89S BLWGSNOWWCI -26
DAUPHIN        LGT SNOW   0  -9  65 W28G33    29.87R BLWGSNOWWCI -26
ISLAND LAKE    LGT SNOW  -4 -11  71 W17G25    29.65R BLWGSNOWWCI -26
PILOT MOUND      N/A     -2  -9  71 NW23G30     N/A  WCI -26
THE PAS        CLOUDY    -8 -17  65 NW21      29.91R WCI -32
THOMPSON       FLURRIES   0 -11  60 N21G28    29.79R WCI -23
WINNIPEG       MOSUNNY    1  -8  66 NW18G25   29.86R WCI -19
LYNN LAKE      CLOUDY    -2 -13  60 N18G25    29.93R WCI -24
CHURCHILL      MOSUNNY   -6 -11  77 N18       29.99R WCI -29
GILLAM         LGT SNOW  -6 -13  71 N23       29.77R BLWGSNOWWCI -31
$$
                ***SASKATCHEWAN***

CITY           SKY/WX    TMP DP  RH WIND       PRES   REMARKS
ESTEVAN        MOSUNNY    1  -8  66 W29G36    29.97F WCI -24
KINDERSLEY     NOT AVBL
LLOYDMINSTER   PTSUNNY    1  -6  71 NW22G28   30.05R BLWGSNOWWCI -21
PRINCE ALBERT  PTSUNNY   -2 -17  50 N22       30.01R WCI -26
REGINA         CLOUDY     1  -4  78 NW17G24   29.96S BLWGSNOWWCI -19
YORKTON        CLOUDY    -2  -9  71 NW26      29.88S HAZE    WCI -28
N. BATTLEFORD  SUNNY      1  -9  60 NW21G28   30.05S WCI -20
LA RONGE       NOT AVBL
SASKATOON      PTSUNNY    1  -9  60 NW22G31   30.01S WCI -21
SWIFT CURRENT  PTSUNNY    7  -4  61 NW36G46   29.92F WCI -18
$$
NOTE: THESE ARE AUTOMATED STATIONS WITH LIMITED QUALITY CONTROL
      "FAIR" INDICATES FEW OR NO CLOUDS BELOW 12,000 FEET WITH NO
      SIGNIFICANT WEATHER AND/OR OBSTRUCTIONS TO VISIBILITY.
      SKY/WX - SKY CONDITION AND SIGNIFICANT WEATHER.
      TMP - AIR TEMPERATURE.    DP   - DEWPOINT TEMPERATURE.
      RH  - RELATIVE HUMIDITY.  PRES - PRESSURE.
      HX  - HEAT INDEX.         WCI  - WIND CHILL INDEX.
$



USA.gov is the U.S. government's official web portal to all federal, state and local government web resources and services.